Ainsworth, NE

12:15 PM CDT on March 29, 2017 (GMT -0500)
Ainsworth Municipal

Weather History for KANW - May, 2014

Change the Weather History Date:

Saturday, May 31, 2014

  Actual Average Record
Temperature  
Mean Temperature 70 °F -  
Max Temperature 78 °F 71 °F 82 °F (2002)
Min Temperature 63 °F 48 °F 43 °F (2012)
Cooling Degree Days 6    
Growing Degree Days 20 (Base 50)    
Moisture  
Dew Point 63 °F    
Average Humidity 83    
Maximum Humidity 99    
Minimum Humidity 59    
Precipitation  
Precipitation 0.13 in - - ()
Sea Level Pressure  
Sea Level Pressure 29.98 in    
Wind  
Wind Speed 5 mph (SSE)    
Max Wind Speed 10 mph    
Max Gust Speed 16 mph    
Visibility 10 miles    
Events Rain , Thunderstorm    
Averages and records for this station are not official NWS values.
T = Trace of Precipitation, MM = Missing Value Source: NWS Daily Summary

Daily Weather History Graph

Daily Weather History Graph

Search for Another Location

Airport or City:

Trip Planner

Search our weather history database for the weather conditions in past years. The results will help you decide how hot, cold, wet, or windy it might be!

Date:

Astronomy

May. 31, 2014 Rise Set
Actual Time 6:05 AM CDT 9:10 PM CDT
Civil Twilight 5:31 AM CDT 9:44 PM CDT
Nautical Twilight 4:48 AM CDT 10:27 PM CDT
Astronomical Twilight 3:56 AM CDT 11:19 PM CDT
Moon 8:46 AM CDT (5/31) 11:27 PM CDT (5/31)
Length of Visible Light 16h 12m
Length of Day
15h 04m
Waxing Crescent, 8% of the Moon is Illuminated
May 31
Waxing Crescent
Jun 5
First Quarter
Jun 12
Full
Jun 19
Last Quarter
Jun 27
New

Hourly Weather History & Observations

Time (CDT) Temp. Dew Point Humidity Pressure Visibility Wind Dir Wind Speed Gust Speed Precip Events Conditions
12:15 AM 64.9 °F 61.2 °F 88% 30.07 in 10.0 mi North 5.8 mph - N/A   Mostly Cloudy
12:35 AM 64.4 °F 61.2 °F 89% 30.08 in 10.0 mi Calm Calm - N/A   Mostly Cloudy
12:55 AM 63.9 °F 61.9 °F 93% 30.09 in 7.0 mi SE 4.6 mph - 0.01 in Rain Heavy Rain
1:15 AM 63.1 °F 62.6 °F 98% 30.10 in 10.0 mi SSE 9.2 mph - 0.01 in Rain Light Rain
1:35 AM 63.7 °F 63.0 °F 97% 30.10 in 5.0 mi SE 3.5 mph - 0.10 in Rain , Thunderstorm Light Thunderstorms and Rain
1:55 AM 64.0 °F 63.5 °F 98% - - North - - N/A   Unknown
2:15 AM 64.0 °F 62.8 °F 96% 30.05 in 10.0 mi NE 10.4 mph - 0.01 in Rain Light Rain
2:35 AM 64.4 °F 63.1 °F 96% 30.04 in 10.0 mi ENE 6.9 mph - 0.01 in   Mostly Cloudy
2:55 AM 64.0 °F 62.6 °F 95% 30.04 in 10.0 mi ENE 5.8 mph - 0.01 in   Scattered Clouds
3:15 AM 63.7 °F 62.4 °F 96% 30.03 in 10.0 mi East 8.1 mph - N/A   Clear
3:35 AM 63.9 °F 62.8 °F 96% 30.04 in 10.0 mi ESE 5.8 mph - N/A   Clear
3:55 AM 63.7 °F 62.6 °F 96% 30.03 in 10.0 mi East 4.6 mph - N/A   Scattered Clouds
4:15 AM 64.6 °F 61.9 °F 91% 30.03 in 10.0 mi East 4.6 mph - N/A   Mostly Cloudy
4:35 AM 64.0 °F 61.7 °F 92% 30.03 in 10.0 mi East 8.1 mph - N/A   Mostly Cloudy
4:55 AM 63.9 °F 61.7 °F 93% 30.03 in 10.0 mi East 5.8 mph - N/A   Scattered Clouds
5:15 AM 63.7 °F 61.7 °F 93% 30.03 in 10.0 mi ESE 5.8 mph - N/A   Scattered Clouds
5:35 AM 63.5 °F 61.5 °F 93% 30.03 in 10.0 mi East 5.8 mph - N/A   Scattered Clouds
5:55 AM 63.3 °F 61.7 °F 94% 30.03 in 10.0 mi West 3.5 mph - N/A   Mostly Cloudy
6:15 AM 63.5 °F 62.1 °F 95% 30.04 in 10.0 mi WNW 3.5 mph - N/A   Scattered Clouds
6:35 AM 63.3 °F 62.2 °F 96% 30.04 in 10.0 mi WNW 3.5 mph - N/A   Mostly Cloudy
6:55 AM 63.3 °F 62.6 °F 97% 30.04 in 10.0 mi WNW 3.5 mph - N/A   Mostly Cloudy
7:15 AM 63.5 °F 62.6 °F 97% 30.04 in 10.0 mi WNW 3.5 mph - N/A   Scattered Clouds
7:35 AM 63.9 °F 63.1 °F 97% 30.04 in 10.0 mi NW 4.6 mph - N/A   Mostly Cloudy
7:55 AM 64.0 °F 63.1 °F 97% 30.04 in 10.0 mi Calm Calm - N/A   Mostly Cloudy
8:15 AM 64.0 °F 63.5 °F 98% 30.03 in 7.0 mi NW 3.5 mph - N/A Rain Rain
8:35 AM 64.0 °F 63.7 °F 99% 30.03 in 10.0 mi Calm Calm - 0.01 in Rain Light Rain
8:55 AM 64.0 °F 63.5 °F 98% 30.03 in 10.0 mi North 3.5 mph - 0.01 in   Overcast
9:15 AM 64.0 °F 63.7 °F 99% 30.03 in 10.0 mi North 3.5 mph - N/A   Light Drizzle
9:35 AM 64.4 °F 63.9 °F 98% 30.03 in 10.0 mi Calm Calm - N/A   Overcast
9:55 AM 64.8 °F 63.9 °F 97% 30.04 in 10.0 mi Calm Calm - N/A   Overcast
10:15 AM 65.3 °F 63.7 °F 94% 30.03 in 10.0 mi Calm Calm - N/A   Overcast
10:35 AM 65.3 °F 63.5 °F 94% 30.03 in 10.0 mi Calm Calm - N/A   Overcast
10:55 AM 65.7 °F 64.0 °F 94% 30.02 in 7.0 mi Calm Calm - N/A Rain Light Rain
11:15 AM 67.3 °F 65.3 °F 93% 30.03 in 10.0 mi Calm Calm - N/A   Overcast
11:35 AM 67.1 °F 64.4 °F 91% 30.02 in 10.0 mi SSW 3.5 mph - N/A Rain Rain
11:55 AM 67.3 °F 65.1 °F 93% 30.02 in 10.0 mi SSW 4.6 mph - N/A   Overcast
12:15 PM 67.8 °F 64.4 °F 89% 30.02 in 7.0 mi South 4.6 mph - N/A Rain Light Rain
12:35 PM 68.5 °F 64.8 °F 88% 30.01 in 10.0 mi South 5.8 mph - N/A   Overcast
12:55 PM 70.5 °F 64.6 °F 81% 30.01 in 10.0 mi SW 5.8 mph - N/A   Mostly Cloudy
1:15 PM 71.8 °F 64.4 °F 77% 30.00 in 10.0 mi SW 6.9 mph - N/A   Mostly Cloudy
1:35 PM 73.8 °F 63.5 °F 70% 29.99 in 10.0 mi SSW 8.1 mph - N/A   Mostly Cloudy
1:55 PM 74.3 °F 62.2 °F 66% 29.99 in 10.0 mi SW 6.9 mph - N/A   Overcast
2:15 PM 73.8 °F 62.2 °F 67% 29.98 in 10.0 mi South 10.4 mph - N/A   Overcast
2:35 PM 74.3 °F 62.1 °F 65% 29.97 in 10.0 mi South 9.2 mph 16.1 mph N/A   Overcast
2:55 PM 74.8 °F 62.6 °F 66% 29.97 in 10.0 mi SSW 10.4 mph - N/A   Overcast
3:15 PM 74.5 °F 63.0 °F 67% 29.97 in 10.0 mi South 10.4 mph - N/A   Overcast
3:35 PM 74.8 °F 63.0 °F 66% 29.95 in 10.0 mi South 6.9 mph - N/A   Mostly Cloudy
3:55 PM 76.5 °F 63.1 °F 63% 29.94 in 10.0 mi South 9.2 mph - N/A   Overcast
4:15 PM 77.0 °F 63.9 °F 64% 29.94 in 10.0 mi South 10.4 mph - N/A   Overcast
4:35 PM 76.3 °F 62.8 °F 63% 29.94 in 10.0 mi South 8.1 mph - N/A   Overcast
4:55 PM 77.0 °F 63.3 °F 63% 29.92 in 10.0 mi South 5.8 mph - N/A   Mostly Cloudy
5:15 PM 78.8 °F 63.5 °F 59% 29.91 in 10.0 mi South 5.8 mph - N/A   Scattered Clouds
5:35 PM 78.1 °F 62.8 °F 59% 29.90 in 10.0 mi South 8.1 mph - N/A   Mostly Cloudy
5:55 PM 78.1 °F 64.4 °F 63% 29.90 in 10.0 mi SSE 9.2 mph - N/A   Mostly Cloudy
6:15 PM 77.5 °F 63.5 °F 62% 29.89 in 10.0 mi South 6.9 mph - N/A   Scattered Clouds
6:35 PM 78.6 °F 63.5 °F 60% 29.88 in 10.0 mi South 6.9 mph - N/A   Clear
6:55 PM 78.4 °F 63.0 °F 59% 29.88 in 10.0 mi SSE 5.8 mph - N/A   Clear
7:20 PM 78.1 °F 63.1 °F 60% 29.87 in 10.0 mi SSE 6.9 mph - N/A   Clear
7:35 PM 78.1 °F 63.3 °F 60% 29.87 in 10.0 mi SE 8.1 mph - N/A   Clear
7:55 PM 77.7 °F 63.9 °F 62% 29.87 in 10.0 mi SSE 5.8 mph - N/A   Clear
8:15 PM 77.0 °F 64.0 °F 64% 29.87 in 10.0 mi SSE 4.6 mph - N/A   Clear
8:35 PM 76.1 °F 65.5 °F 70% 29.88 in 10.0 mi SE 4.6 mph - N/A   Mostly Cloudy
8:55 PM 74.7 °F 65.5 °F 73% 29.87 in 10.0 mi SE 5.8 mph - N/A   Mostly Cloudy
9:15 PM 73.0 °F 65.7 °F 78% 29.87 in 10.0 mi SE 5.8 mph - N/A   Scattered Clouds
9:35 PM 72.1 °F 65.8 °F 80% 29.88 in 10.0 mi SE 5.8 mph - N/A   Scattered Clouds
9:55 PM 71.6 °F 65.7 °F 81% 29.89 in 10.0 mi SE 5.8 mph - N/A   Scattered Clouds
10:15 PM 71.2 °F 65.3 °F 81% 29.90 in 10.0 mi SSE 5.8 mph - N/A   Scattered Clouds
10:35 PM 70.9 °F 64.4 °F 80% 29.89 in 10.0 mi SSE 5.8 mph - N/A   Clear
10:55 PM 69.8 °F 64.2 °F 82% 29.89 in 10.0 mi SE 3.5 mph - N/A   Clear
11:15 PM 68.9 °F 64.4 °F 86% 29.89 in 10.0 mi SSE 5.8 mph - N/A   Clear
11:35 PM 68.2 °F 64.4 °F 88% 29.89 in 10.0 mi SSE 4.6 mph - N/A   Clear
11:55 PM 67.8 °F 64.4 °F 89% 29.88 in 10.0 mi South 5.8 mph - N/A   Clear